,,,PA_Meas_PMT16A,,PR_Meas_QMR101_102,,RH_Meas_QMH101,,SR_Meas_QMS101,,TA_Meas_QMH101,,GenWind,,GenWind,
date,time,status,PA,status,PR,status,RH,status,SR,status,TA,status,DirAvg,status,SpdAvg,
2014-04-05, 00:00:04,VALID,1012.12,VALID,0,INVALID,110.307,VALID,0.112112,VALID,24.1014,VALID,112,VALID,0.717188,
2014-04-05, 00:01:04,VALID,1012.1,VALID,0,INVALID,110.291,VALID,0.112112,VALID,24.0819,VALID,114,VALID,1.08398,
2014-04-05, 00:02:04,VALID,1012.03,VALID,0,INVALID,110.291,VALID,0.112112,VALID,24.0819,VALID,133,VALID,1.78555,
2014-04-05, 00:03:04,VALID,1012.02,VALID,0,INVALID,110.238,VALID,0.112112,VALID,24.1032,VALID,120,VALID,0.994922,
2014-04-05, 00:04:04,VALID,1011.99,VALID,0,INVALID,110.284,VALID,0.112112,VALID,24.0819,VALID,118,VALID,0.866797,
2014-04-05, 00:05:04,VALID,1011.98,VALID,0,INVALID,110.291,VALID,0,VALID,24.0819,VALID,133,VALID,2.21406,
2014-04-05, 00:06:04,VALID,1011.95,VALID,0,INVALID,110.284,VALID,0.112112,VALID,24.0819,VALID,132,VALID,1.45664,
2014-04-05, 00:07:04,VALID,1011.94,VALID,0,INVALID,110.261,VALID,0.112112,VALID,24.0819,VALID,124,VALID,1.7082,
2014-04-05, 00:08:04,VALID,1011.93,VALID,0,INVALID,110.291,VALID,0.112112,VALID,24.0624,VALID,108,VALID,1.07578,
2014-04-05, 00:09:04,VALID,1011.94,VALID,0,INVALID,110.284,VALID,0.112112,VALID,24.0624,VALID,132,VALID,1.99141,
2014-04-05, 00:10:04,VALID,1011.93,VALID,0,INVALID,110.276,VALID,0.112112,VALID,24.0624,VALID,139,VALID,0.675391,
2014-04-05, 00:11:04,VALID,1011.94,VALID,0,INVALID,110.284,VALID,0.112112,VALID,24.0624,VALID,127,VALID,1.28359,
2014-04-05, 00:12:04,VALID,1011.93,VALID,0,INVALID,110.276,VALID,0,VALID,24.0624,VALID,162,VALID,1.28867,
2014-04-05, 00:13:04,VALID,1011.9,VALID,0,INVALID,110.291,VALID,0.112112,VALID,24.0837,VALID,131,VALID,1.51133,
2014-04-05, 00:14:04,VALID,1011.91,VALID,0,INVALID,110.307,VALID,0.112112,VALID,24.0429,VALID,156,VALID,2.1168,
2014-04-05, 00:15:04,VALID,1011.91,VALID,0,INVALID,110.322,VALID,0.112112,VALID,24.0429,VALID,145,VALID,1.92305,
2014-04-05, 00:16:04,VALID,1011.88,VALID,0,INVALID,110.261,VALID,0.112112,VALID,24.0624,VALID,111,VALID,1.03281,
2014-04-05, 00:17:04,VALID,1011.89,VALID,0,INVALID,110.284,VALID,0.112112,VALID,24.0624,VALID,143,VALID,0.949219,
2014-04-05, 00:18:04,VALID,1011.89,VALID,0,INVALID,110.314,VALID,0.112112,VALID,24.0624,VALID,111,VALID,0.849609,
2014-04-05, 00:19:04,VALID,1011.86,VALID,0,INVALID,110.307,VALID,0.112112,VALID,24.0624,VALID,154,VALID,1.20859,
2014-04-05, 00:20:04,VALID,1011.89,VALID,0,INVALID,110.337,VALID,0.112112,VALID,24.0624,VALID,136,VALID,1.58008,
2014-04-05, 00:21:04,VALID,1011.91,VALID,0,INVALID,110.329,VALID,0.112112,VALID,24.0429,VALID,129,VALID,1.26367,
2014-04-05, 00:22:04,VALID,1011.88,VALID,0,INVALID,110.314,VALID,0.112112,VALID,24.0429,VALID,149,VALID,1.58359,
2014-04-05, 00:23:04,VALID,1011.92,VALID,0,INVALID,110.329,VALID,0.112112,VALID,24.0624,VALID,162,VALID,1.60703,
2014-04-05, 00:24:04,VALID,1011.9,VALID,0,INVALID,110.307,VALID,0.112112,VALID,24.0624,VALID,128,VALID,1.79688,
2014-04-05, 00:25:04,VALID,1011.88,VALID,0,INVALID,110.307,VALID,0.112112,VALID,24.0624,VALID,126,VALID,2.37461,
2014-04-05, 00:26:04,VALID,1011.88,VALID,0,INVALID,110.284,VALID,0.112112,VALID,24.0819,VALID,129,VALID,2.05742,
2014-04-05, 00:27:04,VALID,1011.87,VALID,0,INVALID,110.238,VALID,0,VALID,24.0624,VALID,125,VALID,1.53477,
2014-04-05, 00:28:04,VALID,1011.82,VALID,0,INVALID,110.268,VALID,0,VALID,24.0624,VALID,136,VALID,1.85078,
2014-04-05, 00:29:04,VALID,1011.83,VALID,0,INVALID,110.299,VALID,0,VALID,24.0837,VALID,153,VALID,0.884766,
2014-04-05, 00:30:04,VALID,1011.8,VALID,0,INVALID,110.337,VALID,0,VALID,24.0624,VALID,134,VALID,1.18711,
2014-04-05, 00:31:04,VALID,1011.77,VALID,0,INVALID,110.337,VALID,0,VALID,24.0624,VALID,118,VALID,1.43828,
2014-04-05, 00:32:04,VALID,1011.8,VALID,0,INVALID,110.352,VALID,0,VALID,24.0643,VALID,137,VALID,0.934375,
2014-04-05, 00:33:04,VALID,1011.76,VALID,0,INVALID,110.314,VALID,0,VALID,24.0624,VALID,137,VALID,0.932813,
2014-04-05, 00:34:04,VALID,1011.78,VALID,0,INVALID,110.322,VALID,0,VALID,24.0837,VALID,125,VALID,1.05195,
2014-04-05, 00:35:04,VALID,1011.8,VALID,0,INVALID,110.406,VALID,0,VALID,24.0837,VALID,125,VALID,1.00352,
2014-04-05, 00:36:04,VALID,1011.8,VALID,0,INVALID,110.406,VALID,0,VALID,24.0624,VALID,123,VALID,1,
2014-04-05, 00:37:04,VALID,1011.79,VALID,0,INVALID,110.421,VALID,0,VALID,24.0837,VALID,110,VALID,1.86992,
2014-04-05, 00:38:04,VALID,1011.77,VALID,0,INVALID,110.398,VALID,0,VALID,24.0837,VALID,112,VALID,1.83945,
2014-04-05, 00:39:04,VALID,1011.8,VALID,0,INVALID,110.337,VALID,0,VALID,24.0837,VALID,122,VALID,2.32305,
2014-04-05, 00:40:04,VALID,1011.81,VALID,0,INVALID,110.345,VALID,0,VALID,24.0837,VALID,126,VALID,0.962109,
2014-04-05, 00:41:04,VALID,1011.8,VALID,0,INVALID,110.383,VALID,0,VALID,24.0837,VALID,135,VALID,1.20977,
2014-04-05, 00:42:04,VALID,1011.79,VALID,0,INVALID,110.383,VALID,0.112112,VALID,24.0606,VALID,144,VALID,0.617578,
2014-04-05, 00:43:04,VALID,1011.81,VALID,0,INVALID,110.375,VALID,0.112112,VALID,24.1014,VALID,140,VALID,0.648828,
2014-04-05, 00:44:04,VALID,1011.79,VALID,0,INVALID,110.421,VALID,0.112112,VALID,24.0606,VALID,138,VALID,1.47383,
2014-04-05, 00:45:04,VALID,1011.78,VALID,0,INVALID,110.467,VALID,0.112112,VALID,24.0819,VALID,129,VALID,1.54414,
2014-04-05, 00:46:04,VALID,1011.79,VALID,0,INVALID,110.482,VALID,0.112112,VALID,24.0819,VALID,130,VALID,0.636719,
2014-04-05, 00:47:04,VALID,1011.75,VALID,0,INVALID,110.421,VALID,0.112112,VALID,24.0819,VALID,103,VALID,1.44961,
2014-04-05, 00:48:04,VALID,1011.74,VALID,0,INVALID,110.406,VALID,0.112112,VALID,24.0819,VALID,125,VALID,1.21211,
2014-04-05, 00:49:04,VALID,1011.73,VALID,0,INVALID,110.352,VALID,0.112112,VALID,24.1014,VALID,129,VALID,1.2668,
2014-04-05, 00:50:04,VALID,1011.72,VALID,0,INVALID,110.39,VALID,0.112112,VALID,24.1014,VALID,137,VALID,1.60859,
2014-04-05, 00:51:04,VALID,1011.73,VALID,0,INVALID,110.421,VALID,0.112112,VALID,24.0801,VALID,123,VALID,1.91562,
2014-04-05, 00:52:04,VALID,1011.72,VALID,0,INVALID,110.375,VALID,0.112112,VALID,24.0819,VALID,119,VALID,1.18242,
2014-04-05, 00:53:04,VALID,1011.74,VALID,0,INVALID,110.39,VALID,0.112112,VALID,24.0819,VALID,116,VALID,1.48164,
2014-04-05, 00:54:04,VALID,1011.73,VALID,0,INVALID,110.39,VALID,0.112112,VALID,24.0819,VALID,146,VALID,1.81328,
2014-04-05, 00:55:04,VALID,1011.74,VALID,0,INVALID,110.406,VALID,0.112112,VALID,24.0819,VALID,163,VALID,0.7125,
2014-04-05, 00:56:04,VALID,1011.72,VALID,0,INVALID,110.36,VALID,0.112112,VALID,24.1014,VALID,126,VALID,0.707812,
2014-04-05, 00:57:04,VALID,1011.73,VALID,0,INVALID,110.406,VALID,0,VALID,24.1032,VALID,133,VALID,1.21836,
2014-04-05, 00:58:04,VALID,1011.73,VALID,0,INVALID,110.436,VALID,0,VALID,24.1032,VALID,118,VALID,1.36289,
2014-04-05, 00:59:04,VALID,1011.7,VALID,0,INVALID,110.421,VALID,0,VALID,24.0837,VALID,121,VALID,0.929297,
2014-04-05, 01:00:05,VALID,1011.7,VALID,0,INVALID,110.429,VALID,0,VALID,24.0837,VALID,137,VALID,0.473828,
2014-04-05, 01:01:05,VALID,1011.67,VALID,0,INVALID,110.406,VALID,0,VALID,24.1032,VALID,120,VALID,1.30977,
2014-04-05, 01:02:05,VALID,1011.66,VALID,0,INVALID,110.474,VALID,0,VALID,24.0837,VALID,120,VALID,1.22773,
2014-04-05, 01:03:05,VALID,1011.66,VALID,0,INVALID,110.467,VALID,0,VALID,24.0837,VALID,96,VALID,1.27305,
2014-04-05, 01:04:05,VALID,1011.62,VALID,0,INVALID,110.429,VALID,0,VALID,24.1051,VALID,107,VALID,1.925,
2014-04-05, 01:05:05,VALID,1011.6,VALID,0,INVALID,110.39,VALID,0,VALID,24.0837,VALID,100,VALID,1.1918,
2014-04-05, 01:06:05,VALID,1011.56,VALID,0,INVALID,110.375,VALID,0,VALID,24.0643,VALID,91,VALID,1.5332,
2014-04-05, 01:07:05,VALID,1011.55,VALID,0,INVALID,110.451,VALID,0,VALID,24.0837,VALID,121,VALID,0.847266,
2014-04-05, 01:08:05,VALID,1011.53,VALID,0,INVALID,110.375,VALID,0,VALID,24.0643,VALID,120,VALID,2.21875,
2014-04-05, 01:09:05,VALID,1011.51,VALID,0,INVALID,110.429,VALID,0,VALID,24.0837,VALID,107,VALID,1.31992,
2014-04-05, 01:10:05,VALID,1011.51,VALID,0,INVALID,110.413,VALID,0,VALID,24.0837,VALID,126,VALID,1.56211,
2014-04-05, 01:11:05,VALID,1011.52,VALID,0,INVALID,110.444,VALID,0,VALID,24.0643,VALID,129,VALID,1.14297,
2014-04-05, 01:12:05,VALID,1011.5,VALID,0,INVALID,110.467,VALID,0,VALID,24.0643,VALID,115,VALID,0.922266,
2014-04-05, 01:13:05,VALID,1011.46,VALID,0,INVALID,110.474,VALID,0,VALID,24.0448,VALID,109,VALID,0.989844,
2014-04-05, 01:14:05,VALID,1011.47,VALID,0,INVALID,110.429,VALID,0,VALID,24.0235,VALID,123,VALID,1.54883,
2014-04-05, 01:15:05,VALID,1011.46,VALID,0,INVALID,110.459,VALID,0,VALID,24.0448,VALID,106,VALID,1.04453,
2014-04-05, 01:16:05,VALID,1011.46,VALID,0,INVALID,110.52,VALID,0,VALID,24.0235,VALID,142,VALID,1.31562,
2014-04-05, 01:17:05,VALID,1011.45,VALID,0,INVALID,110.49,VALID,0,VALID,24.0448,VALID,155,VALID,1.45313,
2014-04-05, 01:18:05,VALID,1011.45,VALID,0,INVALID,110.543,VALID,0,VALID,24.0235,VALID,131,VALID,0.896875,
2014-04-05, 01:19:05,VALID,1011.43,VALID,0,INVALID,110.573,VALID,0,VALID,24.004,VALID,124,VALID,1.43867,
2014-04-05, 01:20:05,VALID,1011.44,VALID,0.5,INVALID,110.581,VALID,0,VALID,24.0448,VALID,132,VALID,0.852734,
2014-04-05, 01:21:05,VALID,1011.44,VALID,0,INVALID,110.581,VALID,0,VALID,24.0253,VALID,126,VALID,1.2293,
2014-04-05, 01:22:05,VALID,1011.42,VALID,0,INVALID,110.589,VALID,0,VALID,24.0253,VALID,139,VALID,0.639063,
2014-04-05, 01:23:05,VALID,1011.41,VALID,0,INVALID,110.573,VALID,0,VALID,24.0253,VALID,121,VALID,1.01914,
2014-04-05, 01:24:05,VALID,1011.39,VALID,0,INVALID,110.551,VALID,0,VALID,24.0253,VALID,112,VALID,1.96641,
2014-04-05, 01:25:05,VALID,1011.39,VALID,0,INVALID,110.612,VALID,0,VALID,24.004,VALID,126,VALID,1.30195,
2014-04-05, 01:26:05,VALID,1011.39,VALID,0,INVALID,110.589,VALID,0,VALID,24.0253,VALID,118,VALID,1.82266,
2014-04-05, 01:27:05,VALID,1011.36,VALID,0,INVALID,110.589,VALID,0,VALID,24.0058,VALID,126,VALID,1.57891,
2014-04-05, 01:28:05,VALID,1011.37,VALID,0,INVALID,110.589,VALID,0,VALID,24.0058,VALID,133,VALID,1.65508,
2014-04-05, 01:29:05,VALID,1011.32,VALID,0,INVALID,110.573,VALID,0,VALID,24.0058,VALID,125,VALID,1.4832,
2014-04-05, 01:30:05,VALID,1011.36,VALID,0,INVALID,110.581,VALID,0,VALID,24.0253,VALID,133,VALID,0.172656,
2014-04-05, 01:31:05,VALID,1011.36,VALID,0,INVALID,110.551,VALID,0,VALID,23.9845,VALID,121,VALID,1.20625,
2014-04-05, 01:32:05,VALID,1011.35,VALID,0,INVALID,110.589,VALID,0,VALID,24.0058,VALID,130,VALID,0.0289063,
2014-04-05, 01:33:05,VALID,1011.34,VALID,0,INVALID,110.596,VALID,0,VALID,24.0058,VALID,113,VALID,0,
2014-04-05, 01:34:05,VALID,1011.36,VALID,0,INVALID,110.543,VALID,0,VALID,24.0058,VALID,122,VALID,0,
2014-04-05, 01:35:05,VALID,1011.37,VALID,0,INVALID,110.627,VALID,0,VALID,23.9863,VALID,124,VALID,0,
2014-04-05, 01:36:05,VALID,1011.37,VALID,0,INVALID,110.589,VALID,0,VALID,23.9863,VALID,108,VALID,0,
2014-04-05, 01:37:05,VALID,1011.37,VALID,0,INVALID,110.604,VALID,0,VALID,23.9863,VALID,96,VALID,0,
2014-04-05, 01:38:05,VALID,1011.39,VALID,0,INVALID,110.619,VALID,0,VALID,24.0076,VALID,111,VALID,0,
2014-04-05, 01:39:05,VALID,1011.41,VALID,0,INVALID,110.612,VALID,0,VALID,23.9863,VALID,99,VALID,0,
2014-04-05, 01:40:05,VALID,1011.4,VALID,0,INVALID,110.627,VALID,0,VALID,23.9473,VALID,112,VALID,0,
2014-04-05, 01:41:05,VALID,1011.4,VALID,0,INVALID,110.634,VALID,0,VALID,23.9668,VALID,91,VALID,0,
2014-04-05, 01:42:05,VALID,1011.4,VALID,0,INVALID,110.657,VALID,0,VALID,23.9668,VALID,117,VALID,0,
2014-04-05, 01:43:05,VALID,1011.43,VALID,0,INVALID,110.642,VALID,0,VALID,23.9668,VALID,115,VALID,0,
2014-04-05, 01:44:05,VALID,1011.41,VALID,0,INVALID,110.627,VALID,0,VALID,23.9668,VALID,119,VALID,0,
2014-04-05, 01:45:05,VALID,1011.41,VALID,0,INVALID,110.627,VALID,0,VALID,23.9473,VALID,104,VALID,0,
2014-04-05, 01:46:05,VALID,1011.42,VALID,0,INVALID,110.596,VALID,0,VALID,23.9473,VALID,90,VALID,0,
2014-04-05, 01:47:05,VALID,1011.42,VALID,0,INVALID,110.65,VALID,0,VALID,23.9668,VALID,82,VALID,0,
2014-04-05, 01:48:05,VALID,1011.4,VALID,0,INVALID,110.627,VALID,0,VALID,23.9473,VALID,110,VALID,0,
2014-04-05, 01:49:05,VALID,1011.42,VALID,0,INVALID,110.627,VALID,0,VALID,23.9473,VALID,137,VALID,0,
2014-04-05, 01:50:05,VALID,1011.41,VALID,0,INVALID,110.619,VALID,0,VALID,23.9473,VALID,123,VALID,0,
2014-04-05, 01:51:05,VALID,1011.41,VALID,0,INVALID,110.634,VALID,0,VALID,23.9278,VALID,118,VALID,0,
2014-04-05, 01:52:05,VALID,1011.39,VALID,0,INVALID,110.627,VALID,0,VALID,23.9473,VALID,120,VALID,0,
2014-04-05, 01:53:05,VALID,1011.43,VALID,0,INVALID,110.634,VALID,0,VALID,23.9278,VALID,122,VALID,0,
2014-04-05, 01:54:05,VALID,1011.4,VALID,0,INVALID,110.627,VALID,0,VALID,23.9278,VALID,128,VALID,0,
2014-04-05, 01:55:05,VALID,1011.39,VALID,0,INVALID,110.619,VALID,0,VALID,23.9473,VALID,122,VALID,0,
2014-04-05, 01:56:05,VALID,1011.41,VALID,0,INVALID,110.612,VALID,0,VALID,23.9473,VALID,92,VALID,0,
2014-04-05, 01:57:05,VALID,1011.42,VALID,0,INVALID,110.634,VALID,0,VALID,23.9473,VALID,92,VALID,0,
2014-04-05, 01:58:05,VALID,1011.43,VALID,0,INVALID,110.665,VALID,0,VALID,23.9278,VALID,101,VALID,0,
2014-04-05, 01:59:05,VALID,1011.42,VALID,0,INVALID,110.604,VALID,0,VALID,23.9278,VALID,101,VALID,0,
2014-04-05, 02:00:05,VALID,1011.43,VALID,0,INVALID,110.558,VALID,0,VALID,23.9473,VALID,101,VALID,0,
2014-04-05, 02:01:05,VALID,1011.43,VALID,0,INVALID,110.619,VALID,0,VALID,23.9473,VALID,101,VALID,0,
2014-04-05, 02:02:05,VALID,1011.43,VALID,0,INVALID,110.665,VALID,0,VALID,23.9491,VALID,101,VALID,0,
2014-04-05, 02:03:05,VALID,1011.42,VALID,0,INVALID,110.642,VALID,0,VALID,23.9491,VALID,101,VALID,0,
2014-04-05, 02:04:05,VALID,1011.42,VALID,0,INVALID,110.65,VALID,0,VALID,23.9278,VALID,101,VALID,0,
2014-04-05, 02:05:05,VALID,1011.42,VALID,0,INVALID,110.657,VALID,0,VALID,23.9278,VALID,106,VALID,0,
2014-04-05, 02:06:05,VALID,1011.4,VALID,0,INVALID,110.634,VALID,0,VALID,23.9491,VALID,97,VALID,0,
2014-04-05, 02:07:05,VALID,1011.36,VALID,0,INVALID,110.642,VALID,0,VALID,23.9491,VALID,102,VALID,0,
2014-04-05, 02:08:05,VALID,1011.37,VALID,0,INVALID,110.604,VALID,0,VALID,23.9278,VALID,118,VALID,0,
2014-04-05, 02:09:05,VALID,1011.34,VALID,0,INVALID,110.596,VALID,0,VALID,23.9278,VALID,119,VALID,0,
2014-04-05, 02:10:05,VALID,1011.31,VALID,0,INVALID,110.612,VALID,0,VALID,23.9278,VALID,118,VALID,0,
2014-04-05, 02:11:05,VALID,1011.3,VALID,0,INVALID,110.634,VALID,0,VALID,23.9297,VALID,114,VALID,0,
2014-04-05, 02:12:05,VALID,1011.28,VALID,0,INVALID,110.65,VALID,0,VALID,23.9278,VALID,110,VALID,0,
2014-04-05, 02:13:05,VALID,1011.26,VALID,0,INVALID,110.627,VALID,0,VALID,23.9473,VALID,108,VALID,0,
2014-04-05, 02:14:05,VALID,1011.26,VALID,0,INVALID,110.634,VALID,0,VALID,23.9278,VALID,101,VALID,0,
2014-04-05, 02:15:05,VALID,1011.26,VALID,0,INVALID,110.642,VALID,0.112112,VALID,23.9473,VALID,100,VALID,0,
2014-04-05, 02:16:05,VALID,1011.27,VALID,0,INVALID,110.612,VALID,0,VALID,23.9065,VALID,105,VALID,0,
2014-04-05, 02:17:05,VALID,1011.26,VALID,0,INVALID,110.65,VALID,0,VALID,23.9278,VALID,96,VALID,0,
2014-04-05, 02:18:05,VALID,1011.26,VALID,0,INVALID,110.68,VALID,0.112112,VALID,23.9065,VALID,96,VALID,0,
2014-04-05, 02:19:05,VALID,1011.25,VALID,0,INVALID,110.642,VALID,0,VALID,23.8871,VALID,95,VALID,0,
2014-04-05, 02:20:05,VALID,1011.24,VALID,0,INVALID,110.68,VALID,0,VALID,23.8871,VALID,76,VALID,0,
2014-04-05, 02:21:05,VALID,1011.23,VALID,0,INVALID,110.657,VALID,0.112112,VALID,23.8871,VALID,76,VALID,0,
2014-04-05, 02:22:05,VALID,1011.23,VALID,0,INVALID,110.65,VALID,0,VALID,23.8871,VALID,76,VALID,0,
2014-04-05, 02:23:05,VALID,1011.2,VALID,0,INVALID,110.688,VALID,0.112112,VALID,23.8871,VALID,75,VALID,0,
2014-04-05, 02:24:05,VALID,1011.2,VALID,0,INVALID,110.695,VALID,0,VALID,23.9084,VALID,76,VALID,0,
2014-04-05, 02:25:05,VALID,1011.21,VALID,0,INVALID,110.673,VALID,0.112112,VALID,23.8889,VALID,76,VALID,0,
2014-04-05, 02:26:05,VALID,1011.2,VALID,0,INVALID,110.65,VALID,0,VALID,23.8676,VALID,76,VALID,0,
2014-04-05, 02:27:05,VALID,1011.17,VALID,0,INVALID,110.65,VALID,0,VALID,23.8694,VALID,76,VALID,0,
2014-04-05, 02:28:05,VALID,1011.14,VALID,0,INVALID,110.634,VALID,0,VALID,23.8694,VALID,76,VALID,0,
2014-04-05, 02:29:05,VALID,1011.16,VALID,0,INVALID,110.65,VALID,0,VALID,23.8694,VALID,76,VALID,0,
2014-04-05, 02:30:05,VALID,1011.12,VALID,0,INVALID,110.65,VALID,0,VALID,23.8694,VALID,76,VALID,0,
2014-04-05, 02:31:05,VALID,1011.13,VALID,0,INVALID,110.619,VALID,0,VALID,23.8694,VALID,76,VALID,0,
2014-04-05, 02:32:05,VALID,1011.12,VALID,0,INVALID,110.604,VALID,0,VALID,23.8694,VALID,76,VALID,0,
2014-04-05, 02:33:05,VALID,1011.13,VALID,0.5,INVALID,110.688,VALID,0,VALID,23.8694,VALID,76,VALID,0,
2014-04-05, 02:34:05,VALID,1011.13,VALID,0,INVALID,110.65,VALID,0,VALID,23.8694,VALID,76,VALID,0,
2014-04-05, 02:35:05,VALID,1011.07,VALID,0,INVALID,110.657,VALID,0,VALID,23.8694,VALID,76,VALID,0,
2014-04-05, 02:36:05,VALID,1011.09,VALID,0,INVALID,110.604,VALID,0,VALID,23.8499,VALID,76,VALID,0,
2014-04-05, 02:37:05,VALID,1011.09,VALID,0,INVALID,110.634,VALID,0,VALID,23.8694,VALID,76,VALID,0,
2014-04-05, 02:38:05,VALID,1011.09,VALID,0,INVALID,110.612,VALID,0,VALID,23.8907,VALID,119,VALID,0,
2014-04-05, 02:39:05,VALID,1011.08,VALID,0.5,INVALID,110.596,VALID,0,VALID,23.8907,VALID,120,VALID,0,
2014-04-05, 02:40:05,VALID,1011.05,VALID,0,INVALID,110.642,VALID,0,VALID,23.8499,VALID,109,VALID,0,
2014-04-05, 02:41:05,VALID,1011.08,VALID,0,INVALID,110.604,VALID,0,VALID,23.8304,VALID,119,VALID,0,
2014-04-05, 02:42:05,VALID,1011.07,VALID,0,INVALID,110.634,VALID,0,VALID,23.8304,VALID,119,VALID,0,
2014-04-05, 02:43:05,VALID,1011.05,VALID,0,INVALID,110.604,VALID,0,VALID,23.8109,VALID,106,VALID,0,
2014-04-05, 02:44:05,VALID,1011.11,VALID,0,INVALID,110.612,VALID,0,VALID,23.8109,VALID,126,VALID,0,
2014-04-05, 02:45:05,VALID,1011.09,VALID,0,INVALID,110.589,VALID,0,VALID,23.8109,VALID,122,VALID,0,
2014-04-05, 02:46:05,VALID,1011.08,VALID,0,INVALID,110.543,VALID,0,VALID,23.8322,VALID,122,VALID,0,
2014-04-05, 02:47:05,VALID,1011.13,VALID,0,INVALID,110.573,VALID,0,VALID,23.8127,VALID,144,VALID,0,
2014-04-05, 02:48:05,VALID,1011.12,VALID,0,INVALID,110.528,VALID,0,VALID,23.7914,VALID,144,VALID,0,
2014-04-05, 02:49:05,VALID,1011.11,VALID,0,INVALID,110.474,VALID,0,VALID,23.7914,VALID,143,VALID,0,
2014-04-05, 02:50:05,VALID,1011.15,VALID,0.5,INVALID,110.558,VALID,0,VALID,23.8127,VALID,143,VALID,0,
2014-04-05, 02:51:05,VALID,1011.15,VALID,0,INVALID,110.52,VALID,0,VALID,23.7914,VALID,143,VALID,0,
2014-04-05, 02:52:05,VALID,1011.14,VALID,0,INVALID,110.497,VALID,0,VALID,23.8109,VALID,143,VALID,0,
2014-04-05, 02:53:05,VALID,1011.15,VALID,0,INVALID,110.505,VALID,0,VALID,23.772,VALID,135,VALID,0,
2014-04-05, 02:54:05,VALID,1011.16,VALID,0,INVALID,110.49,VALID,0,VALID,23.8127,VALID,149,VALID,0,
2014-04-05, 02:55:05,VALID,1011.16,VALID,0,INVALID,110.429,VALID,0,VALID,23.7914,VALID,140,VALID,0,
2014-04-05, 02:56:05,VALID,1011.14,VALID,0,INVALID,110.429,VALID,0,VALID,23.7914,VALID,144,VALID,0,
2014-04-05, 02:57:05,VALID,1011.14,VALID,0,INVALID,110.421,VALID,0,VALID,23.8109,VALID,149,VALID,0,
2014-04-05, 02:58:05,VALID,1011.09,VALID,0,INVALID,110.429,VALID,0,VALID,23.7914,VALID,146,VALID,0,
2014-04-05, 02:59:05,VALID,1011.12,VALID,0,INVALID,110.413,VALID,0,VALID,23.8109,VALID,146,VALID,0,
2014-04-05, 03:00:05,VALID,1011.08,VALID,0,INVALID,110.444,VALID,0.112112,VALID,23.7896,VALID,146,VALID,0,
2014-04-05, 03:01:05,VALID,1011.09,VALID,0,INVALID,110.368,VALID,0,VALID,23.8109,VALID,146,VALID,0,
2014-04-05, 03:02:05,VALID,1011.07,VALID,0.5,INVALID,110.375,VALID,0,VALID,23.8109,VALID,146,VALID,0,
2014-04-05, 03:03:05,VALID,1011.07,VALID,0,INVALID,110.36,VALID,0,VALID,23.8109,VALID,146,VALID,0,
2014-04-05, 03:04:05,VALID,1011.04,VALID,0,INVALID,110.337,VALID,0,VALID,23.8109,VALID,146,VALID,0,
2014-04-05, 03:05:05,VALID,1011.07,VALID,0,INVALID,110.337,VALID,0,VALID,23.8304,VALID,147,VALID,0,
2014-04-05, 03:06:05,VALID,1011.05,VALID,0,INVALID,110.329,VALID,0,VALID,23.8304,VALID,155,VALID,0,
2014-04-05, 03:07:05,VALID,1011.04,VALID,0,INVALID,110.368,VALID,0,VALID,23.8091,VALID,162,VALID,0,
2014-04-05, 03:08:05,VALID,1011.02,VALID,0,INVALID,110.314,VALID,0,VALID,23.8091,VALID,163,VALID,0,
2014-04-05, 03:09:05,VALID,1011,VALID,0,INVALID,110.291,VALID,0,VALID,23.8109,VALID,154,VALID,0,
2014-04-05, 03:10:05,VALID,1011,VALID,0,INVALID,110.307,VALID,0,VALID,23.8304,VALID,163,VALID,0,
2014-04-05, 03:11:05,VALID,1010.99,VALID,0,INVALID,110.322,VALID,0,VALID,23.8304,VALID,163,VALID,0,
2014-04-05, 03:12:05,VALID,1010.98,VALID,0,INVALID,110.268,VALID,0,VALID,23.8499,VALID,149,VALID,0,
2014-04-05, 03:13:05,VALID,1010.96,VALID,0,INVALID,110.314,VALID,0,VALID,23.8304,VALID,149,VALID,0,
2014-04-05, 03:14:05,VALID,1010.94,VALID,0,INVALID,110.284,VALID,0,VALID,23.8091,VALID,123,VALID,0,
2014-04-05, 03:15:05,VALID,1010.93,VALID,0,INVALID,110.291,VALID,0,VALID,23.8304,VALID,123,VALID,0,
2014-04-05, 03:16:05,VALID,1010.91,VALID,0,INVALID,110.299,VALID,0,VALID,23.8109,VALID,109,VALID,0,
2014-04-05, 03:17:05,VALID,1010.89,VALID,0,INVALID,110.314,VALID,0,VALID,23.8109,VALID,126,VALID,0,
2014-04-05, 03:18:05,VALID,1010.9,VALID,0,INVALID,110.345,VALID,0,VALID,23.8091,VALID,141,VALID,0,
2014-04-05, 03:19:05,VALID,1010.89,VALID,0,INVALID,110.345,VALID,0,VALID,23.7896,VALID,137,VALID,0,
2014-04-05, 03:20:05,VALID,1010.88,VALID,0,INVALID,110.276,VALID,0,VALID,23.8109,VALID,138,VALID,0,
2014-04-05, 03:21:05,VALID,1010.85,VALID,0,INVALID,110.329,VALID,0,VALID,23.8109,VALID,160,VALID,0,
2014-04-05, 03:22:05,VALID,1010.83,VALID,0,INVALID,110.253,VALID,0,VALID,23.8109,VALID,159,VALID,0,
2014-04-05, 03:23:05,VALID,1010.81,VALID,0,INVALID,110.337,VALID,0,VALID,23.8304,VALID,159,VALID,0,
2014-04-05, 03:24:05,VALID,1010.79,VALID,0,INVALID,110.329,VALID,0,VALID,23.7896,VALID,151,VALID,0,
2014-04-05, 03:25:05,VALID,1010.78,VALID,0,INVALID,110.299,VALID,0,VALID,23.8109,VALID,151,VALID,0,
2014-04-05, 03:26:05,VALID,1010.76,VALID,0,INVALID,110.345,VALID,0,VALID,23.8109,VALID,120,VALID,0,
2014-04-05, 03:27:05,VALID,1010.77,VALID,0,INVALID,110.329,VALID,0,VALID,23.8109,VALID,120,VALID,0,
2014-04-05, 03:28:05,VALID,1010.75,VALID,0,INVALID,110.36,VALID,0,VALID,23.8109,VALID,121,VALID,0,
2014-04-05, 03:29:05,VALID,1010.7,VALID,0,INVALID,110.421,VALID,0,VALID,23.7701,VALID,129,VALID,0,
2014-04-05, 03:30:05,VALID,1010.71,VALID,0,INVALID,110.352,VALID,0,VALID,23.7701,VALID,122,VALID,0,
2014-04-05, 03:31:05,VALID,1010.69,VALID,0,INVALID,110.413,VALID,0,VALID,23.8109,VALID,122,VALID,0,
2014-04-05, 03:32:05,VALID,1010.68,VALID,0,INVALID,110.368,VALID,0,VALID,23.8109,VALID,122,VALID,0,
2014-04-05, 03:33:05,VALID,1010.66,VALID,0,INVALID,110.39,VALID,0,VALID,23.8304,VALID,122,VALID,0,
2014-04-05, 03:34:05,VALID,1010.64,VALID,0,INVALID,110.307,VALID,0,VALID,23.8109,VALID,122,VALID,0,
2014-04-05, 03:35:05,VALID,1010.6,VALID,0,INVALID,110.352,VALID,0,VALID,23.8091,VALID,122,VALID,0,
2014-04-05, 03:36:05,VALID,1010.59,VALID,0,INVALID,110.352,VALID,0,VALID,23.8304,VALID,122,VALID,0,
2014-04-05, 03:37:05,VALID,1010.58,VALID,0,INVALID,110.375,VALID,0,VALID,23.8109,VALID,120,VALID,0,
2014-04-05, 03:38:05,VALID,1010.58,VALID,0,INVALID,110.482,VALID,0,VALID,23.8109,VALID,120,VALID,0,
2014-04-05, 03:39:05,VALID,1010.59,VALID,0,INVALID,110.375,VALID,0,VALID,23.7896,VALID,120,VALID,0,
2014-04-05, 03:40:05,VALID,1010.57,VALID,0,INVALID,110.451,VALID,0,VALID,23.8109,VALID,120,VALID,0,
2014-04-05, 03:41:04,VALID,1010.58,VALID,0,INVALID,110.451,VALID,0,VALID,23.7914,VALID,106,VALID,0,
2014-04-05, 03:42:04,VALID,1010.55,VALID,0,INVALID,110.497,VALID,0,VALID,23.7914,VALID,115,VALID,0,
2014-04-05, 03:43:04,VALID,1010.57,VALID,0,INVALID,110.505,VALID,0,VALID,23.7914,VALID,115,VALID,0,
2014-04-05, 03:44:04,VALID,1010.55,VALID,0,INVALID,110.451,VALID,0,VALID,23.8109,VALID,115,VALID,0,
2014-04-05, 03:45:04,VALID,1010.56,VALID,0,INVALID,110.459,VALID,0,VALID,23.7914,VALID,115,VALID,0,
2014-04-05, 03:46:04,VALID,1010.56,VALID,0,INVALID,110.467,VALID,0,VALID,23.7914,VALID,115,VALID,0,